TimeEET,TemperatureF,Dew PointF,Humidity,Sea Level PressureIn,VisibilityMPH,Wind Direction,Wind SpeedMPH,Gust SpeedMPH,PrecipitationIn,Events,Conditions,WindDirDegrees,DateUTC
12:20 AM,55.4,51.8,88,29.65,6.2,Calm,Calm,-,N/A,,Mostly Cloudy,0,2013-03-26 22:20:00
12:50 AM,55.4,51.8,88,29.65,6.2,Calm,Calm,-,N/A,,Mostly Cloudy,0,2013-03-26 22:50:00
1:20 AM,55.4,51.8,88,29.65,6.2,Calm,Calm,-,N/A,,Mostly Cloudy,0,2013-03-26 23:20:00
1:50 AM,55.4,51.8,88,29.65,6.2,Calm,Calm,-,N/A,,Mostly Cloudy,0,2013-03-26 23:50:00
2:00 AM,55,52,86,29.66,6,Calm,Calm,,,,Mostly Cloudy,,2013-03-27 00:00:00
2:20 AM,55.4,51.8,88,29.65,6.2,Calm,Calm,-,N/A,,Mostly Cloudy,0,2013-03-27 00:20:00
2:50 AM,55.4,51.8,88,29.65,6.2,SE,4.6,-,N/A,,Mostly Cloudy,140,2013-03-27 00:50:00
3:50 AM,55.4,51.8,88,29.65,6.2,SE,4.6,-,N/A,,Mostly Cloudy,140,2013-03-27 01:50:00
4:20 AM,55.4,51.8,88,29.65,6.2,SE,4.6,-,N/A,,Mostly Cloudy,140,2013-03-27 02:20:00
4:50 AM,55.4,51.8,88,29.62,6.2,SSE,9.2,-,N/A,,Mostly Cloudy,150,2013-03-27 02:50:00
5:20 AM,55.4,51.8,88,29.62,6.2,SSE,11.5,-,N/A,,Mostly Cloudy,150,2013-03-27 03:20:00
5:50 AM,55.4,51.8,88,29.59,6.2,SSE,9.2,-,N/A,,Mostly Cloudy,150,2013-03-27 03:50:00
6:20 AM,55.4,51.8,88,29.59,6.2,SSE,9.2,-,N/A,,Mostly Cloudy,150,2013-03-27 04:20:00
6:50 AM,55.4,53.6,94,29.59,4.3,SSE,5.8,-,N/A,Rain,Light Rain,150,2013-03-27 04:50:00
7:20 AM,55.4,53.6,94,29.59,4.3,SSW,8.1,-,N/A,Rain,Light Rain,200,2013-03-27 05:20:00
7:50 AM,59.0,55.4,88,29.62,5.0,Variable,10.4,-,N/A,Rain,Light Rain,0,2013-03-27 05:50:00
8:00 AM,58,55,86,29.62,5,SSW,10.4,,,Rain,Light Rain,200,2013-03-27 06:00:00
8:20 AM,59.0,55.4,88,29.62,5.0,Variable,11.5,-,N/A,Rain,Light Rain,0,2013-03-27 06:20:00
8:50 AM,59.0,55.4,88,29.62,6.2,NNW,9.2,-,N/A,,Mostly Cloudy,330,2013-03-27 06:50:00
9:20 AM,60.8,55.4,82,29.62,6.2,North,8.1,-,N/A,,Overcast,350,2013-03-27 07:20:00
9:50 AM,60.8,53.6,77,29.68,6.2,NNW,10.4,-,N/A,,Overcast,330,2013-03-27 07:50:00
10:20 AM,60.8,53.6,77,29.68,6.2,North,10.4,-,N/A,,Overcast,350,2013-03-27 08:20:00
10:50 AM,60.8,51.8,72,29.68,6.2,North,10.4,-,N/A,,Overcast,350,2013-03-27 08:50:00
11:20 AM,60.8,51.8,72,29.68,6.2,North,10.4,-,N/A,,Mostly Cloudy,350,2013-03-27 09:20:00
11:50 AM,62.6,51.8,68,29.68,6.2,North,6.9,-,N/A,,Mostly Cloudy,360,2013-03-27 09:50:00
12:20 PM,62.6,50.0,63,29.71,6.2,North,6.9,-,N/A,,Mostly Cloudy,350,2013-03-27 10:20:00
12:50 PM,62.6,48.2,59,29.71,6.2,North,6.9,-,N/A,,Mostly Cloudy,350,2013-03-27 10:50:00
1:20 PM,64.4,48.2,56,29.71,6.2,North,5.8,-,N/A,,Mostly Cloudy,350,2013-03-27 11:20:00
1:50 PM,64.4,46.4,52,29.71,6.2,West,3.5,-,N/A,,Mostly Cloudy,280,2013-03-27 11:50:00
2:00 PM,64,47,43,29.73,12,West,3.5,,,,Partly Cloudy,280,2013-03-27 12:00:00
2:20 PM,64.4,46.4,52,29.71,6.2,West,3.5,-,N/A,,Mostly Cloudy,280,2013-03-27 12:20:00
2:50 PM,64.4,46.4,52,29.71,6.2,West,8.1,-,N/A,,Mostly Cloudy,280,2013-03-27 12:50:00
3:20 PM,64.4,46.4,52,29.71,6.2,West,9.2,-,N/A,,Mostly Cloudy,270,2013-03-27 13:20:00
3:50 PM,64.4,46.4,52,29.74,6.2,West,11.5,-,N/A,,Mostly Cloudy,260,2013-03-27 13:50:00
4:20 PM,64.4,46.4,52,29.74,6.2,West,11.5,-,N/A,,Mostly Cloudy,260,2013-03-27 14:20:00
4:50 PM,60.8,50.0,68,29.74,6.2,WSW,11.5,-,N/A,,Mostly Cloudy,250,2013-03-27 14:50:00
5:20 PM,60.8,50.0,68,29.74,6.2,West,10.4,-,N/A,,Mostly Cloudy,260,2013-03-27 15:20:00
5:50 PM,60.8,50.0,68,29.77,6.2,WSW,11.5,-,N/A,,Mostly Cloudy,250,2013-03-27 15:50:00
6:20 PM,60.8,50.0,68,29.77,6.2,WSW,8.1,-,N/A,,Mostly Cloudy,250,2013-03-27 16:20:00
6:50 PM,59.0,50.0,72,29.80,6.2,WSW,5.8,-,N/A,,Mostly Cloudy,250,2013-03-27 16:50:00
7:20 PM,59.0,50.0,72,29.80,6.2,WSW,5.8,-,N/A,,Mostly Cloudy,250,2013-03-27 17:20:00
7:50 PM,57.2,50.0,77,29.80,6.2,West,4.6,-,N/A,,Mostly Cloudy,270,2013-03-27 17:50:00
8:00 PM,57,50,72,29.81,6,West,4.6,,,,Scattered Clouds,270,2013-03-27 18:00:00
8:20 PM,57.2,50.0,77,29.80,6.2,West,4.6,-,N/A,,Mostly Cloudy,270,2013-03-27 18:20:00
8:50 PM,57.2,50.0,77,29.80,6.2,NW,4.6,-,N/A,,Mostly Cloudy,310,2013-03-27 18:50:00
9:20 PM,57.2,50.0,77,29.80,6.2,North,3.5,-,N/A,,Mostly Cloudy,10,2013-03-27 19:20:00
9:50 PM,55.4,50.0,82,29.83,6.2,North,3.5,-,N/A,,Mostly Cloudy,10,2013-03-27 19:50:00
10:20 PM,57.2,51.8,82,29.86,6.2,Calm,Calm,-,N/A,,Mostly Cloudy,0,2013-03-27 20:20:00
10:50 PM,57.2,51.8,82,29.86,6.2,Calm,Calm,-,N/A,,Mostly Cloudy,0,2013-03-27 20:50:00
11:20 PM,57.2,51.8,82,29.86,6.2,Calm,Calm,-,N/A,,Overcast,0,2013-03-27 21:20:00
11:50 PM,57.2,50.0,77,29.83,6.2,Calm,Calm,-,N/A,,Overcast,0,2013-03-27 21:50:00